Flag for U.S.A. Weather past 2 weeks in Bryan – College Station, Texas, U.S.A.

Now
81 °F

Sunny.


Feels Like: 85 °F
Forecast: 70 / 82 °F
Wind: 13 mph from Southeast

Location: Easterwood Field

Current Time: May 30, 2015 at 11:48:53 AM

Latest Report: May 30, 2015 at 10:53 AM


Visibility: 10 mi

Pressure: 29.99 "Hg

Humidity: 69%

Dew point: 70 °F

Location of Bryan – College StationLocation

Historic Weather in Bryan – College Station — Graph

°F

Bryan – College Station temperature yesterday

Maximum temperature yesterday: 87 °F (at 5:53 PM)
Minimum temperature yesterday: 67 °F (at 5:53 AM)
Average temperature yesterday: 76 °F

Past Weeks' High & Low Weather Summary

 TemperatureHumidityPressure
High88 °F (May 20, 3:53 PM)97% (May 16, 4:53 AM)30.14 "Hg (May 16, 4:53 AM)
Low65 °F (May 21, 8:53 AM)50% (May 29, 5:53 PM)29.77 "Hg (May 25, 4:53 PM)
Average75 °F83%29.98 "Hg
* Reported May 15 10:04 AM — May 30 10:53 AM, Bryan – College Station, Weather by CustomWeather, © 2015

Note: Actual official high and low records may vary slightly from our data, if they occured in-between our weather recording intervals... More about our weather records

Advertising

Bryan – College Station weather history for previous 24 hours

 ConditionsComfort  
Time TempWeatherWind HumidityBarometerVisibility
10:53 AM
Sat, May 30
81 °FSunny.13 mph69%29.99 "Hg10 mi
9:53 AM77 °FPartly sunny.8 mph82%30.05 "Hg10 mi
8:53 AM75 °FMostly cloudy.7 mph88%30.06 "Hg7 mi
8:03 AM74 °FMostly cloudy.5 mph94%30.06 "Hg10 mi
7:53 AM73 °FCloudy.7 mph94%30.04 "Hg10 mi
6:53 AM71 °FClear.3 mph96%29.99 "Hg10 mi
5:53 AM71 °FClear.5 mph93%29.98 "Hg10 mi
4:53 AM72 °FClear.5 mph91%29.97 "Hg10 mi
3:53 AM72 °FClear.6 mph87%29.97 "Hg10 mi
2:53 AM73 °FClear.6 mph84%29.96 "Hg10 mi
1:53 AM73 °FClear.6 mph84%29.97 "Hg10 mi
12:53 AM75 °FClear.5 mph82%29.98 "Hg10 mi
11:53 PM
Fri, May 29
77 °FClear.6 mph79%29.97 "Hg10 mi
10:53 PM77 °FClear.6 mph79%29.96 "Hg10 mi
9:53 PM79 °FClear.6 mph74%29.94 "Hg10 mi
8:53 PM80 °FSunny.5 mph71%29.93 "Hg10 mi
7:53 PM84 °FSunny.5 mph61%29.92 "Hg10 mi
6:53 PM86 °FSunny.7 mph55%29.91 "Hg10 mi
5:53 PM87 °FSunny.7 mph50%29.91 "Hg10 mi
4:53 PM86 °FSunny.7 mph53%29.92 "Hg10 mi
3:53 PM86 °FSunny.8 mph51%29.92 "Hg10 mi
2:53 PM84 °FSunny.8 mph55%29.94 "Hg10 mi
1:53 PM81 °FSunny.8 mph65%29.96 "Hg10 mi
12:53 PM79 °FScattered clouds.8 mph67%29.97 "Hg10 mi
11:53 AM76 °FPassing clouds.8 mph72%29.97 "Hg10 mi
11:00 AM73 °FPassing clouds.7 mph79%29.98 "Hg10 mi
Weather by CustomWeather, © 2015

See weather overviewHow to use our weather pages